CFG40F EDDK-LEPA

Flight info

Callsign CFG40F
Flight time 1h 55m
Altitude 35000
Route NVO2K NVO Y868 NAVAK Z283 SOPOK DCT ROUSY DCT GTQ DCT POGOL DCT LASAT DCT MOROK DCT GILIR DCT GEVEA DCT INCUS DCT BALSI DCT RETNO DCT TUPOX DCT MTG DCT DIVKO DCT VATIR DCT PIVUS DCT BODEQ DCT VERSO L129 LUNIK
Aircraft A320/M-SDE3FGHIRWY/LB1

Departure

Time 2026-04-21 07:13
Airport Cologne Bonn Airport (EDDK)

Arrival

Time 2026-04-21 09:08
Airport Palma de Mallorca Airport (LEPA)
Time Latitude Longitude Altitude Speed Heading
2026-04-21 06:43 50.87274 7.13190 239 ft 0 kts 227°
2026-04-21 06:57 50.87286 7.13209 239 ft 4 kts 229°
2026-04-21 06:58 50.87303 7.13242 239 ft 4 kts 233°
2026-04-21 06:58 50.87318 7.13277 239 ft 4 kts 240°
2026-04-21 06:58 50.87329 7.13316 240 ft 4 kts 268°
2026-04-21 06:58 50.87326 7.13341 240 ft 0 kts 317°
2026-04-21 07:02 50.87349 7.13306 240 ft 8 kts 316°
2026-04-21 07:02 50.87392 7.13241 241 ft 9 kts 315°
2026-04-21 07:03 50.87458 7.13140 241 ft 17 kts 317°
2026-04-21 07:03 50.87551 7.13009 241 ft 18 kts 317°
2026-04-21 07:03 50.87648 7.12862 238 ft 21 kts 316°
2026-04-21 07:03 50.87747 7.12716 236 ft 10 kts 319°
2026-04-21 07:04 50.87770 7.12647 236 ft 8 kts 276°
2026-04-21 07:04 50.87752 7.12565 234 ft 8 kts 238°
2026-04-21 07:04 50.87706 7.12520 234 ft 8 kts 199°
2026-04-21 07:04 50.87651 7.12491 232 ft 9 kts 198°
2026-04-21 07:05 50.87587 7.12459 230 ft 10 kts 198°
2026-04-21 07:05 50.87520 7.12425 228 ft 10 kts 198°
2026-04-21 07:05 50.87452 7.12390 226 ft 10 kts 197°
2026-04-21 07:05 50.87386 7.12358 225 ft 10 kts 198°
2026-04-21 07:06 50.87333 7.12331 226 ft 6 kts 198°
2026-04-21 07:06 50.87302 7.12314 228 ft 3 kts 200°
2026-04-21 07:06 50.87276 7.12300 231 ft 9 kts 197°
2026-04-21 07:06 50.87225 7.12275 232 ft 6 kts 197°
2026-04-21 07:07 50.87172 7.12249 234 ft 7 kts 197°
2026-04-21 07:07 50.87143 7.12222 235 ft 0 kts 228°
2026-04-21 07:07 50.87142 7.12220 234 ft 2 kts 228°
2026-04-21 07:08 50.87107 7.12160 234 ft 9 kts 227°
2026-04-21 07:08 50.87070 7.12099 234 ft 7 kts 218°
2026-04-21 07:08 50.87016 7.12061 234 ft 13 kts 199°
2026-04-21 07:08 50.86967 7.12049 233 ft 1 kts 183°
2026-04-21 07:09 50.86920 7.12049 231 ft 12 kts 176°
2026-04-21 07:09 50.86821 7.12083 231 ft 15 kts 166°
2026-04-21 07:09 50.86730 7.12125 232 ft 13 kts 163°
2026-04-21 07:09 50.86623 7.12152 230 ft 18 kts 184°
2026-04-21 07:10 50.86496 7.12153 230 ft 19 kts 165°
2026-04-21 07:10 50.86371 7.12210 232 ft 18 kts 163°
2026-04-21 07:10 50.86253 7.12258 236 ft 16 kts 168°
2026-04-21 07:10 50.86159 7.12289 240 ft 11 kts 168°
2026-04-21 07:11 50.86090 7.12293 242 ft 8 kts 182°
2026-04-21 07:11 50.86039 7.12307 243 ft 6 kts 160°
2026-04-21 07:11 50.86013 7.12347 244 ft 6 kts 112°
2026-04-21 07:11 50.86026 7.12421 244 ft 7 kts 66°
2026-04-21 07:12 50.86031 7.12438 244 ft 0 kts 66°
2026-04-21 07:12 50.86035 7.12451 244 ft 15 kts 66°
2026-04-21 07:12 50.86212 7.13037 243 ft 100 kts 64°
2026-04-21 07:12 50.86617 7.14368 262 ft 164 kts 63°
2026-04-21 07:13 50.87148 7.16046 920 ft 170 kts 63°
2026-04-21 07:13 50.87663 7.17714 1922 ft 168 kts 66°
2026-04-21 07:13 50.88160 7.19376 2592 ft 173 kts 67°
2026-04-21 07:13 50.88681 7.21197 2940 ft 190 kts 68°
2026-04-21 07:14 50.89225 7.23196 3353 ft 205 kts 69°
2026-04-21 07:14 50.89827 7.25399 3633 ft 232 kts 67°
2026-04-21 07:14 50.90532 7.27813 4200 ft 247 kts 66°
2026-04-21 07:14 50.91264 7.30309 4981 ft 252 kts 66°
2026-04-21 07:15 50.92064 7.32809 5794 ft 256 kts 53°
2026-04-21 07:15 50.93481 7.34492 6703 ft 262 kts 21°
2026-04-21 07:15 50.95314 7.34646 7524 ft 273 kts 348°
2026-04-21 07:15 50.97066 7.33383 8352 ft 282 kts 333°
2026-04-21 07:16 50.98572 7.31364 9203 ft 290 kts 307°
2026-04-21 07:16 50.99321 7.28391 10015 ft 298 kts 278°
2026-04-21 07:16 50.99105 7.25114 10671 ft 305 kts 251°
2026-04-21 07:16 50.98287 7.21871 10902 ft 328 kts 247°
2026-04-21 07:17 50.97349 7.18427 11064 ft 351 kts 246°
2026-04-21 07:17 50.96344 7.14817 11520 ft 362 kts 246°
2026-04-21 07:17 50.95319 7.11137 12170 ft 367 kts 246°
2026-04-21 07:17 50.94290 7.07412 12856 ft 370 kts 247°
2026-04-21 07:18 50.93311 7.03843 13515 ft 374 kts 247°
2026-04-21 07:18 50.92274 7.00048 14181 ft 377 kts 247°
2026-04-21 07:18 50.91232 6.96225 14796 ft 379 kts 247°
2026-04-21 07:18 50.90182 6.92378 15410 ft 382 kts 247°
2026-04-21 07:19 50.89480 6.89812 15822 ft 383 kts 247°
2026-04-21 07:19 50.88400 6.85872 16436 ft 386 kts 247°
2026-04-21 07:19 50.87327 6.81969 17029 ft 389 kts 247°
2026-04-21 07:19 50.86241 6.78030 17614 ft 392 kts 247°
2026-04-21 07:20 50.85146 6.74067 18225 ft 394 kts 247°
2026-04-21 07:20 50.84045 6.70073 18776 ft 397 kts 247°
2026-04-21 07:20 50.82963 6.66036 19294 ft 400 kts 249°
2026-04-21 07:20 50.81937 6.61936 19808 ft 402 kts 250°
2026-04-21 07:21 50.80919 6.57802 20332 ft 405 kts 250°
2026-04-21 07:21 50.79893 6.53649 20835 ft 407 kts 250°
2026-04-21 07:21 50.78849 6.49472 21349 ft 410 kts 249°
2026-04-21 07:21 50.77792 6.45284 21835 ft 412 kts 249°
2026-04-21 07:22 50.76718 6.41065 22316 ft 415 kts 249°
2026-04-21 07:22 50.75636 6.36829 22790 ft 417 kts 249°
2026-04-21 07:22 50.74544 6.32569 23242 ft 420 kts 249°
2026-04-21 07:22 50.73446 6.28292 23674 ft 422 kts 249°
2026-04-21 07:23 50.72338 6.23985 24056 ft 425 kts 249°
2026-04-21 07:23 50.71223 6.19651 24411 ft 427 kts 249°
2026-04-21 07:23 50.70116 6.15360 24762 ft 429 kts 249°
2026-04-21 07:23 50.68977 6.10951 25118 ft 430 kts 249°
2026-04-21 07:24 50.67845 6.06575 25462 ft 432 kts 249°
2026-04-21 07:24 50.66708 6.02182 25813 ft 433 kts 249°
2026-04-21 07:24 50.65567 5.97777 26149 ft 435 kts 249°
2026-04-21 07:24 50.64421 5.93360 26502 ft 436 kts 249°
2026-04-21 07:25 50.63273 5.88945 26842 ft 437 kts 249°
2026-04-21 07:25 50.62092 5.84525 27173 ft 439 kts 245°
2026-04-21 07:25 50.60459 5.80446 27489 ft 443 kts 232°
2026-04-21 07:25 50.58248 5.77048 27787 ft 448 kts 218°
2026-04-21 07:26 50.55560 5.74539 28078 ft 452 kts 205°
2026-04-21 07:26 50.52542 5.73097 28355 ft 457 kts 191°
2026-04-21 07:26 50.49358 5.72821 28606 ft 461 kts 176°
2026-04-21 07:26 50.46162 5.73383 28834 ft 464 kts 174°
2026-04-21 07:27 50.42944 5.74004 29055 ft 467 kts 174°
2026-04-21 07:27 50.39716 5.74634 29256 ft 469 kts 174°
2026-04-21 07:27 50.36466 5.75265 29480 ft 472 kts 175°
2026-04-21 07:27 50.33195 5.75893 29663 ft 474 kts 175°
2026-04-21 07:28 50.29910 5.76516 29864 ft 477 kts 175°
2026-04-21 07:28 50.26609 5.77147 30045 ft 479 kts 174°
2026-04-21 07:28 50.23338 5.78237 30301 ft 482 kts 166°
2026-04-21 07:28 50.20116 5.79683 30513 ft 483 kts 166°
2026-04-21 07:29 50.16879 5.81135 30732 ft 484 kts 166°
2026-04-21 07:29 50.13645 5.82579 30951 ft 484 kts 166°
2026-04-21 07:29 50.10404 5.84018 31169 ft 484 kts 167°
2026-04-21 07:29 50.07160 5.85453 31394 ft 485 kts 167°
2026-04-21 07:30 50.03912 5.86887 31613 ft 485 kts 167°
2026-04-21 07:30 50.00663 5.88323 31841 ft 486 kts 167°
2026-04-21 07:30 49.97411 5.89758 32068 ft 486 kts 167°
2026-04-21 07:30 49.94159 5.91190 32300 ft 486 kts 167°
2026-04-21 07:31 49.90906 5.92621 32532 ft 486 kts 167°
2026-04-21 07:31 49.87650 5.94049 32765 ft 486 kts 167°
2026-04-21 07:31 49.84395 5.95476 33003 ft 486 kts 167°
2026-04-21 07:31 49.81146 5.96907 33227 ft 486 kts 167°
2026-04-21 07:32 49.77892 5.98338 33468 ft 486 kts 167°
2026-04-21 07:32 49.74638 5.99767 33706 ft 486 kts 167°
2026-04-21 07:32 49.71386 6.01189 33945 ft 486 kts 167°
2026-04-21 07:32 49.68134 6.02608 34183 ft 486 kts 168°
2026-04-21 07:33 49.64890 6.04023 34379 ft 485 kts 168°
2026-04-21 07:33 49.61639 6.05437 34581 ft 485 kts 168°
2026-04-21 07:33 49.58388 6.06847 34780 ft 485 kts 168°
2026-04-21 07:33 49.55139 6.08255 34963 ft 485 kts 168°
2026-04-21 07:34 49.51891 6.09675 35132 ft 486 kts 166°
2026-04-21 07:34 49.48722 6.11530 35186 ft 489 kts 157°
2026-04-21 07:34 49.42996 6.17237 35191 ft 494 kts 142°
2026-04-21 07:35 49.37643 6.23890 35184 ft 495 kts 142°
2026-04-21 07:35 49.32276 6.30532 35183 ft 496 kts 143°
2026-04-21 07:36 49.26897 6.37150 35181 ft 496 kts 143°
2026-04-21 07:36 49.21506 6.43760 35181 ft 497 kts 143°
2026-04-21 07:37 49.16108 6.50375 35181 ft 497 kts 143°
2026-04-21 07:37 49.10713 6.56974 35173 ft 497 kts 143°
2026-04-21 07:38 49.05297 6.63565 35168 ft 498 kts 143°
2026-04-21 07:38 48.99391 6.68883 35158 ft 491 kts 162°
2026-04-21 07:39 48.92842 6.71199 35147 ft 480 kts 181°
2026-04-21 07:39 48.86222 6.71136 35141 ft 475 kts 187°
2026-04-21 07:40 48.79601 6.70872 35135 ft 476 kts 187°
2026-04-21 07:40 48.72971 6.70613 35128 ft 477 kts 187°
2026-04-21 07:41 48.66319 6.70353 35124 ft 478 kts 188°
2026-04-21 07:41 48.59661 6.70099 35117 ft 479 kts 188°
2026-04-21 07:42 48.53000 6.69838 35125 ft 480 kts 188°
2026-04-21 07:42 48.46320 6.69585 35122 ft 480 kts 188°
2026-04-21 07:43 48.39638 6.69332 35122 ft 480 kts 188°
2026-04-21 07:43 48.32959 6.69073 35118 ft 481 kts 188°
2026-04-21 07:44 48.26266 6.68809 35116 ft 481 kts 188°
2026-04-21 07:44 48.19572 6.68555 35111 ft 481 kts 188°
2026-04-21 07:45 48.12884 6.68299 35100 ft 481 kts 188°
2026-04-21 07:45 48.06184 6.68043 35096 ft 481 kts 188°
2026-04-21 07:46 47.99491 6.67783 35096 ft 481 kts 188°
2026-04-21 07:46 47.92791 6.67530 35097 ft 482 kts 188°
2026-04-21 07:47 47.86097 6.67286 35094 ft 481 kts 188°
2026-04-21 07:47 47.79408 6.67039 35093 ft 480 kts 188°
2026-04-21 07:48 47.72727 6.66784 35091 ft 480 kts 188°
2026-04-21 07:48 47.66053 6.66529 35096 ft 480 kts 188°
2026-04-21 07:49 47.59383 6.66276 35100 ft 479 kts 188°
2026-04-21 07:49 47.52731 6.66030 35106 ft 478 kts 188°
2026-04-21 07:50 47.46083 6.65757 35115 ft 475 kts 191°
2026-04-21 07:50 47.39793 6.63637 35110 ft 456 kts 210°
2026-04-21 07:51 47.34468 6.59009 35098 ft 437 kts 227°
2026-04-21 07:51 47.29865 6.53219 35091 ft 435 kts 228°
2026-04-21 07:52 47.25244 6.47443 35082 ft 436 kts 227°
2026-04-21 07:52 47.20618 6.41684 35063 ft 436 kts 227°
2026-04-21 07:53 47.15996 6.35931 35071 ft 435 kts 227°
2026-04-21 07:53 47.11373 6.30179 35064 ft 435 kts 227°
2026-04-21 07:54 47.06286 6.25222 35060 ft 450 kts 210°
2026-04-21 07:54 47.03282 6.23746 35062 ft 461 kts 200°
2026-04-21 07:54 47.00082 6.23057 35054 ft 468 kts 192°
2026-04-21 07:55 46.93594 6.22217 35051 ft 468 kts 192°
2026-04-21 07:55 46.87102 6.21348 35050 ft 468 kts 192°
2026-04-21 07:56 46.80615 6.20477 35048 ft 468 kts 192°
2026-04-21 07:56 46.74129 6.19618 35047 ft 468 kts 192°
2026-04-21 07:57 46.67654 6.18762 35047 ft 468 kts 192°
2026-04-21 07:57 46.62222 6.18046 35052 ft 467 kts 192°
2026-04-21 07:58 46.55753 6.17198 35062 ft 467 kts 192°
2026-04-21 07:58 46.49292 6.16347 35065 ft 466 kts 192°
2026-04-21 07:59 46.42837 6.15490 35073 ft 465 kts 191°
2026-04-21 07:59 46.36386 6.14644 35071 ft 465 kts 191°
2026-04-21 08:00 46.29943 6.13815 35078 ft 465 kts 191°
2026-04-21 08:00 46.23513 6.12933 35081 ft 463 kts 193°
2026-04-21 08:01 46.17167 6.11598 35079 ft 460 kts 196°
2026-04-21 08:02 46.07712 6.09278 35051 ft 459 kts 195°
2026-04-21 08:02 46.01395 6.07845 35046 ft 459 kts 195°
2026-04-21 08:03 45.95070 6.06476 35043 ft 459 kts 194°
2026-04-21 08:03 45.88763 6.05104 35040 ft 459 kts 195°
2026-04-21 08:04 45.82453 6.03714 35042 ft 458 kts 195°
2026-04-21 08:04 45.76157 6.02321 35034 ft 458 kts 195°
2026-04-21 08:05 45.69860 6.00936 35041 ft 458 kts 195°
2026-04-21 08:05 45.63571 5.99554 35043 ft 457 kts 195°
2026-04-21 08:06 45.57288 5.98173 35045 ft 457 kts 195°
2026-04-21 08:06 45.51011 5.96791 35040 ft 456 kts 195°
2026-04-21 08:07 45.44760 5.95316 35030 ft 453 kts 198°
2026-04-21 08:07 45.38622 5.93404 35021 ft 451 kts 200°
2026-04-21 08:08 45.32517 5.91343 35007 ft 451 kts 199°
2026-04-21 08:08 45.26393 5.89368 35008 ft 452 kts 199°
2026-04-21 08:09 45.20249 5.87488 35010 ft 452 kts 199°
2026-04-21 08:09 45.14114 5.85619 34998 ft 451 kts 199°
2026-04-21 08:10 45.07991 5.83722 35000 ft 450 kts 199°
2026-04-21 08:10 45.01878 5.81817 34998 ft 450 kts 199°
2026-04-21 08:11 44.95764 5.79930 34985 ft 449 kts 199°
2026-04-21 08:11 44.89656 5.78062 34986 ft 449 kts 199°
2026-04-21 08:12 44.83558 5.76204 34981 ft 448 kts 198°
2026-04-21 08:12 44.77460 5.74336 34970 ft 448 kts 198°
2026-04-21 08:13 44.71379 5.72471 34966 ft 447 kts 198°
2026-04-21 08:13 44.65295 5.70603 34958 ft 447 kts 198°
2026-04-21 08:14 44.59212 5.68749 34951 ft 447 kts 198°
2026-04-21 08:14 44.53130 5.66912 34951 ft 447 kts 198°
2026-04-21 08:15 44.47047 5.65080 34947 ft 447 kts 198°
2026-04-21 08:15 44.40969 5.63250 34942 ft 447 kts 198°
2026-04-21 08:16 44.35073 5.60761 34936 ft 439 kts 207°
2026-04-21 08:16 44.29380 5.57625 34932 ft 440 kts 207°
2026-04-21 08:17 44.23680 5.54495 34933 ft 440 kts 207°
2026-04-21 08:17 44.17974 5.51380 34928 ft 441 kts 207°
2026-04-21 08:18 44.12223 5.48256 34931 ft 441 kts 207°
2026-04-21 08:18 44.06498 5.45146 34932 ft 442 kts 207°
2026-04-21 08:19 44.00773 5.42038 34927 ft 442 kts 207°
2026-04-21 08:19 43.95044 5.38930 34929 ft 442 kts 207°
2026-04-21 08:20 43.89322 5.35836 34927 ft 442 kts 207°
2026-04-21 08:20 43.83594 5.32746 34922 ft 442 kts 207°
2026-04-21 08:21 43.77866 5.29656 34920 ft 442 kts 207°
2026-04-21 08:21 43.72178 5.26595 34931 ft 441 kts 207°
2026-04-21 08:22 43.66414 5.23506 34931 ft 441 kts 207°
2026-04-21 08:22 43.60692 5.20436 34925 ft 441 kts 207°
2026-04-21 08:23 43.54972 5.17372 34924 ft 441 kts 207°
2026-04-21 08:23 43.49252 5.14322 34924 ft 441 kts 207°
2026-04-21 08:24 43.43536 5.11280 34923 ft 441 kts 207°
2026-04-21 08:24 43.37942 5.07955 34921 ft 433 kts 217°
2026-04-21 08:25 43.32991 5.03347 34926 ft 429 kts 220°
2026-04-21 08:25 43.28063 4.98703 34923 ft 430 kts 220°
2026-04-21 08:26 43.23128 4.94071 34925 ft 430 kts 220°
2026-04-21 08:26 43.18191 4.89440 34928 ft 430 kts 220°
2026-04-21 08:27 43.13248 4.84822 34931 ft 430 kts 220°
2026-04-21 08:27 43.08308 4.80212 34932 ft 430 kts 220°
2026-04-21 08:28 43.03213 4.75861 34934 ft 434 kts 214°
2026-04-21 08:28 42.97930 4.71855 34937 ft 434 kts 214°
2026-04-21 08:29 42.92643 4.67849 34938 ft 435 kts 214°
2026-04-21 08:29 42.87353 4.63845 34939 ft 435 kts 214°
2026-04-21 08:30 42.82059 4.59850 34945 ft 435 kts 214°
2026-04-21 08:30 42.76759 4.55867 34945 ft 435 kts 214°
2026-04-21 08:31 42.71460 4.51883 34947 ft 435 kts 214°
2026-04-21 08:31 42.66160 4.47905 34947 ft 435 kts 214°
2026-04-21 08:32 42.60856 4.43939 34948 ft 435 kts 214°
2026-04-21 08:32 42.55550 4.39981 34950 ft 435 kts 214°
2026-04-21 08:33 42.50246 4.36020 34951 ft 435 kts 214°
2026-04-21 08:33 42.44945 4.32072 34949 ft 435 kts 214°
2026-04-21 08:34 42.39635 4.28123 34953 ft 435 kts 214°
2026-04-21 08:34 42.35228 4.24849 34956 ft 435 kts 214°
2026-04-21 08:35 42.29918 4.20918 34950 ft 435 kts 214°
2026-04-21 08:35 42.24600 4.16995 34951 ft 435 kts 214°
2026-04-21 08:36 42.19289 4.13080 34949 ft 435 kts 214°
2026-04-21 08:36 42.13969 4.09157 34956 ft 435 kts 214°
2026-04-21 08:37 42.08653 4.05253 34957 ft 436 kts 213°
2026-04-21 08:37 42.03326 4.01355 34957 ft 436 kts 213°
2026-04-21 08:38 41.97996 3.97458 34956 ft 436 kts 213°
2026-04-21 08:38 41.92557 3.93809 34949 ft 441 kts 204°
2026-04-21 08:39 41.86508 3.91992 34953 ft 448 kts 194°
2026-04-21 08:39 41.80358 3.90582 34954 ft 448 kts 194°
2026-04-21 08:40 41.74215 3.89167 34953 ft 448 kts 194°
2026-04-21 08:40 41.68068 3.87749 34958 ft 448 kts 194°
2026-04-21 08:41 41.61920 3.86335 34964 ft 448 kts 194°
2026-04-21 08:41 41.55775 3.84928 34964 ft 448 kts 194°
2026-04-21 08:42 41.49636 3.83527 34966 ft 448 kts 194°
2026-04-21 08:42 41.43494 3.82123 34970 ft 448 kts 194°
2026-04-21 08:43 41.37357 3.80706 34969 ft 448 kts 194°
2026-04-21 08:43 41.31216 3.79294 34973 ft 448 kts 194°
2026-04-21 08:44 41.25076 3.77904 34973 ft 447 kts 194°
2026-04-21 08:44 41.18938 3.76522 34978 ft 447 kts 194°
2026-04-21 08:45 41.12963 3.74501 34972 ft 440 kts 206°
2026-04-21 08:45 41.07272 3.71535 34968 ft 440 kts 205°
2026-04-21 08:46 41.02249 3.68953 34968 ft 440 kts 205°
2026-04-21 08:46 40.96540 3.66040 34966 ft 440 kts 205°
2026-04-21 08:47 40.90827 3.63113 34818 ft 441 kts 205°
2026-04-21 08:47 40.87967 3.61643 34080 ft 443 kts 205°
2026-04-21 08:47 40.85083 3.60157 33079 ft 447 kts 205°
2026-04-21 08:47 40.82182 3.58667 32178 ft 448 kts 205°
2026-04-21 08:48 40.79274 3.57173 31217 ft 450 kts 204°
2026-04-21 08:48 40.76356 3.55681 30504 ft 447 kts 204°
2026-04-21 08:48 40.73474 3.54215 29884 ft 442 kts 204°
2026-04-21 08:48 40.70621 3.52767 29227 ft 436 kts 204°
2026-04-21 08:49 40.67809 3.51338 28630 ft 430 kts 204°
2026-04-21 08:49 40.65037 3.49930 28023 ft 425 kts 204°
2026-04-21 08:49 40.62290 3.48535 27442 ft 421 kts 204°
2026-04-21 08:49 40.59570 3.47154 26857 ft 417 kts 204°
2026-04-21 08:50 40.56877 3.45783 26279 ft 413 kts 204°
2026-04-21 08:50 40.54206 3.44422 25705 ft 410 kts 204°
2026-04-21 08:50 40.51555 3.43079 25141 ft 407 kts 204°
2026-04-21 08:50 40.48919 3.41748 24589 ft 404 kts 204°
2026-04-21 08:51 40.46293 3.40454 24038 ft 403 kts 201°
2026-04-21 08:51 40.43558 3.39622 23491 ft 405 kts 191°
2026-04-21 08:51 40.40711 3.39432 22899 ft 406 kts 181°
2026-04-21 08:51 40.37906 3.39602 22417 ft 401 kts 180°
2026-04-21 08:52 40.35128 3.39762 21925 ft 398 kts 180°
2026-04-21 08:52 40.32375 3.39913 21462 ft 394 kts 180°
2026-04-21 08:52 40.29650 3.40062 21002 ft 390 kts 180°
2026-04-21 08:52 40.26948 3.40214 20534 ft 387 kts 180°
2026-04-21 08:53 40.24267 3.40368 20070 ft 384 kts 180°
2026-04-21 08:53 40.21604 3.40520 19581 ft 382 kts 180°
2026-04-21 08:53 40.18956 3.40669 19120 ft 380 kts 180°
2026-04-21 08:53 40.16321 3.40815 18631 ft 378 kts 180°
2026-04-21 08:54 40.13693 3.40962 18121 ft 377 kts 180°
2026-04-21 08:54 40.11093 3.41110 17850 ft 368 kts 180°
2026-04-21 08:54 40.08575 3.41257 17715 ft 356 kts 180°
2026-04-21 08:54 40.06137 3.41398 17583 ft 345 kts 180°
2026-04-21 08:55 40.03776 3.41534 17431 ft 335 kts 180°
2026-04-21 08:55 40.01469 3.41665 17120 ft 330 kts 180°
2026-04-21 08:55 39.99173 3.41791 16733 ft 329 kts 180°
2026-04-21 08:55 39.96891 3.41915 16281 ft 329 kts 180°
2026-04-21 08:56 39.94620 3.42041 15997 ft 325 kts 180°
2026-04-21 08:56 39.92365 3.42166 15621 ft 324 kts 180°
2026-04-21 08:56 39.90118 3.42291 15265 ft 322 kts 180°
2026-04-21 08:56 39.87882 3.42419 14910 ft 321 kts 180°
2026-04-21 08:57 39.85661 3.42549 14455 ft 317 kts 180°
2026-04-21 08:57 39.83462 3.42672 13860 ft 315 kts 180°
2026-04-21 08:57 39.81277 3.42792 13211 ft 313 kts 180°
2026-04-21 08:57 39.79105 3.42915 12757 ft 311 kts 180°
2026-04-21 08:58 39.76952 3.43035 12406 ft 309 kts 179°
2026-04-21 08:58 39.74814 3.43134 11939 ft 306 kts 183°
2026-04-21 08:58 39.72776 3.42551 11507 ft 299 kts 207°
2026-04-21 08:58 39.71139 3.40955 11055 ft 294 kts 231°
2026-04-21 08:59 39.70171 3.38654 10534 ft 292 kts 256°
2026-04-21 08:59 39.69999 3.36049 10076 ft 290 kts 273°
2026-04-21 08:59 39.70092 3.33426 9634 ft 292 kts 273°
2026-04-21 08:59 39.70179 3.30789 9225 ft 292 kts 272°
2026-04-21 09:00 39.70262 3.28165 8813 ft 291 kts 272°
2026-04-21 09:00 39.70345 3.25535 8387 ft 291 kts 272°
2026-04-21 09:00 39.70426 3.22907 7974 ft 291 kts 272°
2026-04-21 09:00 39.70506 3.20299 7566 ft 285 kts 272°
2026-04-21 09:01 39.70581 3.17778 7177 ft 274 kts 272°
2026-04-21 09:01 39.70655 3.15355 6798 ft 264 kts 273°
2026-04-21 09:01 39.70727 3.13008 6433 ft 255 kts 273°
2026-04-21 09:01 39.70794 3.10743 6046 ft 246 kts 271°
2026-04-21 09:02 39.70596 3.08598 5753 ft 235 kts 252°
2026-04-21 09:02 39.69909 3.06715 5441 ft 228 kts 238°
2026-04-21 09:02 39.69086 3.04980 5052 ft 225 kts 238°
2026-04-21 09:03 39.67491 3.01579 4413 ft 214 kts 238°
2026-04-21 09:03 39.66730 2.99955 4171 ft 206 kts 238°
2026-04-21 09:03 39.65998 2.98394 3874 ft 199 kts 237°
2026-04-21 09:03 39.65291 2.96885 3600 ft 193 kts 237°
2026-04-21 09:04 39.64607 2.95428 3366 ft 186 kts 238°
2026-04-21 09:04 39.63945 2.94019 3122 ft 179 kts 237°
2026-04-21 09:04 39.63307 2.92659 2885 ft 175 kts 237°
2026-04-21 09:04 39.62679 2.91322 2654 ft 171 kts 237°
2026-04-21 09:05 39.62080 2.90047 2444 ft 163 kts 236°
2026-04-21 09:05 39.61506 2.88827 2256 ft 156 kts 237°
2026-04-21 09:05 39.60953 2.87652 2036 ft 148 kts 237°
2026-04-21 09:05 39.60419 2.86516 1850 ft 146 kts 236°
2026-04-21 09:06 39.59891 2.85396 1671 ft 146 kts 237°
2026-04-21 09:06 39.59365 2.84280 1460 ft 145 kts 237°
2026-04-21 09:06 39.58840 2.83165 1280 ft 145 kts 237°
2026-04-21 09:06 39.58323 2.82048 1079 ft 144 kts 238°
2026-04-21 09:07 39.57795 2.80945 870 ft 144 kts 237°
2026-04-21 09:07 39.57269 2.79849 677 ft 142 kts 238°
2026-04-21 09:07 39.56751 2.78765 502 ft 141 kts 238°
2026-04-21 09:07 39.56248 2.77678 318 ft 140 kts 239°
2026-04-21 09:08 39.55748 2.76596 151 ft 139 kts 239°
2026-04-21 09:08 39.55243 2.75542 26 ft 130 kts 238°
2026-04-21 09:08 39.54858 2.74719 28 ft 82 kts 238°
2026-04-21 09:08 39.54629 2.74241 31 ft 43 kts 237°
2026-04-21 09:09 39.54552 2.73957 31 ft 30 kts 263°
2026-04-21 09:09 39.54549 2.73808 31 ft 3 kts 269°
2026-04-21 09:10 39.54549 2.73806 31 ft 2 kts 269°
2026-04-21 09:10 39.54552 2.73772 31 ft 4 kts 285°
2026-04-21 09:11 39.54582 2.73741 32 ft 8 kts 347°
2026-04-21 09:11 39.54614 2.73759 31 ft 8 kts 44°
2026-04-21 09:11 39.54651 2.73836 31 ft 15 kts 59°
2026-04-21 09:11 39.54713 2.73967 30 ft 19 kts 58°
2026-04-21 09:12 39.54766 2.74079 29 ft 10 kts 58°
2026-04-21 09:12 39.54812 2.74129 29 ft 8 kts 359°
2026-04-21 09:12 39.54861 2.74098 29 ft 7 kts 329°
2026-04-21 09:12 39.54905 2.74064 28 ft 7 kts 329°
2026-04-21 09:13 39.54942 2.74029 28 ft 6 kts 306°
2026-04-21 09:13 39.54936 2.73986 28 ft 5 kts 242°
2026-04-21 09:13 39.54932 2.73943 28 ft 4 kts 289°
2026-04-21 09:13 39.54954 2.73917 28 ft 5 kts 327°
2026-04-21 09:14 39.54983 2.73893 28 ft 5 kts 328°
2026-04-21 09:14 39.54986 2.73864 28 ft 3 kts 250°
2026-04-21 09:14 39.54977 2.73840 28 ft 3 kts 239°
2026-04-21 09:14 39.54967 2.73819 28 ft 2 kts 239°
2026-04-21 09:15 39.54963 2.73810 28 ft 1 kts 236°
2026-04-21 09:15 39.54954 2.73791 28 ft 3 kts 238°
2026-04-21 09:15 39.54947 2.73777 28 ft 1 kts 238°
2026-04-21 09:15 39.54943 2.73768 28 ft 0 kts 237°